TimeCST,TemperatureF,Dew PointF,Humidity,Sea Level PressureIn,VisibilityMPH,Wind Direction,Wind SpeedMPH,Gust SpeedMPH,PrecipitationIn,Events,Conditions,WindDirDegrees,DateUTC
12:53 AM,-9999,-9999,N/A,30.23,10.0,SE,4.6,-,N/A,,Clear,140,2013-01-07 06:53:00
1:53 AM,-9999,-9999,N/A,30.22,10.0,SE,5.8,-,N/A,,Clear,140,2013-01-07 07:53:00
2:53 AM,-9999,-9999,N/A,30.20,10.0,ESE,6.9,-,N/A,,Clear,120,2013-01-07 08:53:00
3:53 AM,-9999,-9999,N/A,30.20,10.0,ESE,3.5,-,N/A,,Clear,120,2013-01-07 09:53:00
4:53 AM,-9999,-9999,N/A,30.16,10.0,ESE,10.4,-,N/A,,Clear,120,2013-01-07 10:53:00
5:53 AM,32.0,24.8,75,30.15,10.0,SE,8.1,-,N/A,,Clear,140,2013-01-07 11:53:00
6:53 AM,30.2,24.8,80,30.16,10.0,SE,6.9,-,N/A,,Clear,140,2013-01-07 12:53:00
7:53 AM,-9999,-9999,N/A,30.15,10.0,ESE,9.2,-,N/A,,Clear,120,2013-01-07 13:53:00
8:53 AM,32.0,24.8,75,30.17,10.0,SE,8.1,-,N/A,,Clear,140,2013-01-07 14:53:00
9:53 AM,39.2,26.6,61,30.16,10.0,SSE,15.0,-,N/A,,Clear,150,2013-01-07 15:53:00
10:53 AM,-9999,-9999,N/A,30.15,10.0,SSE,20.7,25.3,N/A,,Clear,150,2013-01-07 16:53:00
11:53 AM,44.6,26.6,49,30.12,10.0,SSE,16.1,-,N/A,,Clear,160,2013-01-07 17:53:00
12:53 PM,44.6,26.6,49,30.09,10.0,South,16.1,-,N/A,,Clear,170,2013-01-07 18:53:00
1:53 PM,51.8,24.8,35,30.04,10.0,SSE,16.1,23.0,N/A,,Clear,150,2013-01-07 19:53:00
2:53 PM,-9999,-9999,N/A,30.01,10.0,SE,12.7,-,N/A,,Clear,140,2013-01-07 20:53:00
3:53 PM,50.0,26.6,40,30.00,10.0,SE,16.1,-,N/A,,Clear,140,2013-01-07 21:53:00
4:53 PM,51.8,26.6,38,30.00,10.0,SE,13.8,-,N/A,,Clear,140,2013-01-07 22:53:00
5:53 PM,48.2,24.8,40,30.00,10.0,SE,16.1,-,N/A,,Clear,140,2013-01-07 23:53:00
6:53 PM,46.4,27.0,47,29.99,10.0,SE,10.4,-,N/A,,Clear,130,2013-01-08 00:53:00
7:53 PM,-9999,-9999,N/A,30.02,10.0,SSE,9.2,-,N/A,,Clear,150,2013-01-08 01:53:00
8:53 PM,41.0,27.0,57,30.00,10.0,ESE,6.9,-,N/A,,Clear,120,2013-01-08 02:53:00
9:53 PM,-9999,-9999,N/A,30.00,10.0,SE,5.8,-,N/A,,Clear,130,2013-01-08 03:53:00
10:53 PM,39.2,27.0,62,29.99,10.0,ESE,4.6,-,N/A,,Clear,120,2013-01-08 04:53:00
11:53 PM,-9999,-9999,N/A,29.98,10.0,Calm,Calm,-,N/A,,Clear,0,2013-01-08 05:53:00